Location: West Chester
(39.9610°N, 75.6060°W)
Time: 20:09:28
(UTC-04:00)

ARIANE 6 FM1 Upper Stage - Pass Details

Date: 22 September 2024
Orbit: 563 x 594 km, 62.0° (Epoch: 11 October)

Event Time Altitude Azimuth Distance (km) Brightness Sun altitude
Exits shadow 05:11:01 46° 278° (W) 807 3.0 -19.6°
Maximum altitude 05:11:50 54° 238° (WSW) 731 2.8 -19.4°
Drops below altitude 10° 05:16:05 10° 162° (SSE) 1,927 5.4 -18.7°
Sets 05:18:22 0° 157° (SSE) 2,823 6.3 -18.3°
